| time (UTC) | temp C | wind direction | speed KPH | gust KPH | rain 1hr cm | rain 24hr cm | rain mn cm | humidity % | barometer mb |
| 20260507183605 | 12 | 167 | 3.2 | 8.0 | 0.00 | 0.00 | 0.00 | 68 | 1007.6 |
| 20260507182705 | 12 | 170 | 3.2 | 9.7 | 0.00 | 0.00 | 0.00 | 67 | 1007.6 |
| 20260507181805 | 12 | 165 | 3.2 | 8.0 | 0.00 | 0.00 | 0.00 | 68 | 1007.6 |
| 20260507180905 | 12 | 168 | 3.2 | 9.7 | 0.00 | 0.00 | 0.00 | 68 | 1007.6 |
| 20260507180027 | 12 | 161 | 3.2 | 8.0 | 0.00 | 0.00 | 0.00 | 68 | 1007.6 |
| 20260507175426 | 12 | 165 | 3.2 | 8.0 | 0.00 | 0.00 | 0.00 | 68 | 1007.5 |
| 20260507174505 | 12 | 171 | 3.2 | 8.0 | 0.00 | 0.00 | 0.00 | 68 | 1007.7 |
| 20260507173605 | 12 | 166 | 1.6 | 6.4 | 0.00 | 0.00 | 0.00 | 69 | 1007.6 |
| 20260507172705 | 12 | 165 | 1.6 | 4.8 | 0.00 | 0.00 | 0.00 | 68 | 1007.6 |
| 20260507171805 | 12 | 159 | 3.2 | 6.4 | 0.00 | 0.00 | 0.00 | 69 | 1007.6 |
| 20260507170906 | 12 | 158 | 3.2 | 8.0 | 0.00 | 0.00 | 0.00 | 68 | 1007.7 |
| 20260507170005 | 12 | 163 | 4.8 | 14.5 | 0.00 | 0.00 | 0.00 | 68 | 1007.8 |
| 20260507165405 | 12 | 158 | 6.4 | 14.5 | 0.00 | 0.00 | 0.00 | 68 | 1007.8 |
| 20260507164505 | 12 | 161 | 4.8 | 11.3 | 0.00 | 0.00 | 0.00 | 68 | 1007.9 |
| 20260507163605 | 12 | 153 | 4.8 | 11.3 | 0.00 | 0.00 | 0.00 | 68 | 1007.9 |
| 20260507162705 | 12 | 158 | 4.8 | 12.9 | 0.00 | 0.00 | 0.00 | 68 | 1007.9 |
| 20260507161826 | 12 | 158 | 4.8 | 11.3 | 0.00 | 0.00 | 0.00 | 69 | 1008.0 |
| 20260507160905 | 12 | 158 | 3.2 | 11.3 | 0.00 | 0.00 | 0.00 | 70 | 1008.1 |
| 20260507160005 | 12 | 156 | 4.8 | 12.9 | 0.00 | 0.00 | 0.00 | 69 | 1008.1 |
| 20260507155405 | 12 | 154 | 4.8 | 12.9 | 0.00 | 0.00 | 0.00 | 71 | 1008.2 |
| 20260507154505 | 11 | 152 | 4.8 | 8.0 | 0.00 | 0.00 | 0.00 | 70 | 1008.2 |
| 20260507153605 | 11 | 154 | 4.8 | 12.9 | 0.00 | 0.00 | 0.00 | 71 | 1008.3 |
| 20260507152705 | 11 | 168 | 3.2 | 8.0 | 0.00 | 0.00 | 0.00 | 71 | 1008.3 |
| 20260507151826 | 11 | 158 | 3.2 | 8.0 | 0.00 | 0.00 | 0.00 | 71 | 1008.5 |
| 20260507150905 | 11 | 160 | 3.2 | 9.7 | 0.00 | 0.00 | 0.00 | 71 | 1008.4 |
| 20260507150027 | 11 | 178 | 4.8 | 12.9 | 0.00 | 0.00 | 0.00 | 71 | 1008.4 |
| 20260507145405 | 11 | 169 | 6.4 | 16.1 | 0.00 | 0.00 | 0.00 | 70 | 1008.6 |
| 20260507144506 | 11 | 165 | 6.4 | 16.1 | 0.00 | 0.00 | 0.00 | 70 | 1008.6 |
| 20260507143605 | 11 | 170 | 4.8 | 14.5 | 0.00 | 0.00 | 0.00 | 70 | 1008.6 |
| 20260507142705 | 11 | 167 | 4.8 | 14.5 | 0.00 | 0.00 | 0.00 | 70 | 1008.7 |
| 20260507141826 | 11 | 171 | 4.8 | 11.3 | 0.00 | 0.00 | 0.00 | 71 | 1008.7 |
| 20260507140926 | 11 | 170 | 4.8 | 12.9 | 0.00 | 0.00 | 0.00 | 71 | 1008.8 |
| 20260507140025 | 11 | 163 | 6.4 | 16.1 | 0.00 | 0.00 | 0.00 | 71 | 1008.8 |
| 20260507135405 | 11 | 162 | 6.4 | 16.1 | 0.00 | 0.00 | 0.00 | 70 | 1008.8 |
| 20260507134504 | 11 | 157 | 8.0 | 19.3 | 0.00 | 0.00 | 0.00 | 70 | 1008.9 |
| 20260507133604 | 11 | 167 | 4.8 | 8.0 | 0.00 | 0.00 | 0.00 | 73 | 1009.0 |
| 20260507132704 | 11 | 170 | 4.8 | 12.9 | 0.00 | 0.00 | 0.00 | 74 | 1009.0 |
| 20260507131805 | 11 | 166 | 6.4 | 16.1 | 0.00 | 0.00 | 0.00 | 73 | 1009.0 |
| 20260507130927 | 11 | 163 | 6.4 | 16.1 | 0.00 | 0.00 | 0.00 | 73 | 1009.0 |
| 20260507130005 | 11 | 165 | 6.4 | 16.1 | 0.00 | 0.00 | 0.00 | 73 | 1008.9 |
| 20260507125404 | 11 | 164 | 6.4 | 17.7 | 0.00 | 0.00 | 0.00 | 73 | 1008.9 |
| 20260507124504 | 11 | 168 | 8.0 | 19.3 | 0.00 | 0.00 | 0.00 | 72 | 1009.0 |
| 20260507123625 | 11 | 162 | 9.7 | 19.3 | 0.00 | 0.00 | 0.00 | 73 | 1008.8 |
| 20260507122706 | 11 | 164 | 6.4 | 16.1 | 0.00 | 0.00 | 0.00 | 72 | 1008.9 |
| 20260507121804 | 11 | 162 | 6.4 | 16.1 | 0.00 | 0.00 | 0.00 | 73 | 1008.7 |
| 20260507120904 | 11 | 161 | 8.0 | 19.3 | 0.00 | 0.00 | 0.00 | 70 | 1008.9 |
| 20260507120005 | 11 | 167 | 6.4 | 16.1 | 0.00 | 0.00 | 0.00 | 70 | 1009.0 |
| 20260507115404 | 11 | 165 | 8.0 | 16.1 | 0.00 | 0.00 | 0.00 | 71 | 1009.0 |
| 20260507114504 | 11 | 158 | 8.0 | 19.3 | 0.00 | 0.00 | 0.00 | 71 | 1009.0 |
| 20260507113604 | 11 | 163 | 8.0 | 22.5 | 0.00 | 0.00 | 0.00 | 71 | 1009.0 |
| 20260507112704 | 11 | 156 | 9.7 | 19.3 | 0.00 | 0.00 | 0.00 | 71 | 1009.1 |
| 20260507111805 | 11 | 159 | 8.0 | 19.3 | 0.00 | 0.00 | 0.00 | 73 | 1009.0 |
| 20260507110904 | 11 | 156 | 8.0 | 17.7 | 0.00 | 0.00 | 0.00 | 72 | 1009.1 |
| 20260507110005 | 11 | 157 | 8.0 | 16.1 | 0.00 | 0.00 | 0.00 | 76 | 1009.2 |
| 20260507105404 | 10 | 158 | 8.0 | 17.7 | 0.00 | 0.00 | 0.00 | 76 | 1009.1 |
| 20260507104504 | 10 | 159 | 8.0 | 16.1 | 0.00 | 0.00 | 0.00 | 75 | 1009.3 |
| 20260507103625 | 9 | 155 | 8.0 | 17.7 | 0.00 | 0.00 | 0.00 | 77 | 1009.4 |
| 20260507102704 | 10 | 164 | 8.0 | 16.1 | 0.00 | 0.00 | 0.00 | 78 | 1009.2 |
| 20260507101804 | 9 | 163 | 6.4 | 16.1 | 0.00 | 0.00 | 0.00 | 78 | 1009.4 |
| 20260507100904 | 8 | 160 | 6.4 | 14.5 | 0.00 | 0.00 | 0.00 | 80 | 1009.4 |
| 20260507100005 | 8 | 159 | 6.4 | 14.5 | 0.00 | 0.00 | 0.00 | 80 | 1009.5 |
| 20260507095425 | 7 | 154 | 6.4 | 16.1 | 0.00 | 0.00 | 0.00 | 80 | 1009.5 |
| 20260507094504 | 7 | 169 | 3.2 | 9.7 | 0.00 | 0.00 | 0.00 | 82 | 1009.5 |
| 20260507093625 | 7 | 172 | 4.8 | 8.0 | 0.00 | 0.00 | 0.00 | 82 | 1009.5 |
| 20260507092704 | 7 | 161 | 4.8 | 14.5 | 0.00 | 0.00 | 0.00 | 82 | 1009.5 |
| 20260507091826 | 7 | 161 | 4.8 | 9.7 | 0.00 | 0.00 | 0.00 | 82 | 1009.5 |
| 20260507090904 | 7 | 159 | 6.4 | 12.9 | 0.00 | 0.00 | 0.00 | 82 | 1009.6 |
| 20260507090005 | 6 | 163 | 4.8 | 12.9 | 0.00 | 0.00 | 0.00 | 82 | 1009.6 |
| 20260507085404 | 6 | 165 | 3.2 | 12.9 | 0.00 | 0.00 | 0.00 | 82 | 1009.6 |
| 20260507084504 | 6 | 161 | 4.8 | 9.7 | 0.00 | 0.00 | 0.00 | 82 | 1009.6 |
| 20260507083604 | 6 | 169 | 3.2 | 9.7 | 0.00 | 0.00 | 0.00 | 83 | 1009.6 |
| 20260507082726 | 6 | 177 | 3.2 | 12.9 | 0.00 | 0.00 | 0.00 | 83 | 1009.6 |
| 20260507081804 | 6 | 168 | 4.8 | 12.9 | 0.00 | 0.00 | 0.00 | 82 | 1009.6 |
| 20260507080904 | 6 | 168 | 3.2 | 9.7 | 0.00 | 0.00 | 0.00 | 82 | 1009.5 |
| 20260507080004 | 6 | 162 | 4.8 | 11.3 | 0.00 | 0.00 | 0.00 | 82 | 1009.6 |
| 20260507075404 | 6 | 166 | 4.8 | 14.5 | 0.00 | 0.00 | 0.00 | 82 | 1009.6 |
| 20260507074525 | 6 | 164 | 4.8 | 11.3 | 0.00 | 0.00 | 0.00 | 82 | 1009.6 |
| 20260507073604 | 6 | 161 | 4.8 | 9.7 | 0.00 | 0.00 | 0.00 | 83 | 1009.6 |
| 20260507072704 | 6 | 167 | 3.2 | 8.0 | 0.00 | 0.00 | 0.00 | 83 | 1009.5 |
| 20260507071804 | 6 | 175 | 4.8 | 8.0 | 0.00 | 0.00 | 0.00 | 83 | 1009.5 |
| 20260507070904 | 5 | 170 | 4.8 | 9.7 | 0.00 | 0.00 | 0.00 | 84 | 1009.4 |
| 20260507070007 | 5 | 166 | 3.2 | 8.0 | 0.00 | 0.00 | 0.00 | 84 | 1009.5 |
| 20260507065403 | 5 | 155 | 3.2 | 8.0 | 0.00 | 0.00 | 0.00 | 84 | 1009.5 |
| 20260507064504 | 5 | 164 | 3.2 | 8.0 | 0.00 | 0.00 | 0.00 | 84 | 1009.4 |
| 20260507063603 | 5 | 157 | 3.2 | 8.0 | 0.00 | 0.00 | 0.00 | 84 | 1009.4 |
| 20260507062703 | 5 | 168 | 3.2 | 6.4 | 0.00 | 0.00 | 0.00 | 84 | 1009.5 |
| 20260507061803 | 5 | 170 | 3.2 | 6.4 | 0.00 | 0.00 | 0.00 | 85 | 1009.5 |
| 20260507060903 | 5 | 155 | 3.2 | 8.0 | 0.00 | 0.00 | 0.00 | 85 | 1009.4 |
| 20260507060003 | 4 | 161 | 1.6 | 6.4 | 0.00 | 0.00 | 0.00 | 85 | 1009.3 |
| 20260507055403 | 4 | 163 | 1.6 | 4.8 | 0.00 | 0.00 | 0.00 | 86 | 1009.2 |
| 20260507054503 | 4 | 170 | 1.6 | 4.8 | 0.00 | 0.00 | 0.00 | 86 | 1009.2 |
| 20260507053603 | 3 | 149 | 0.0 | 3.2 | 0.00 | 0.00 | 0.00 | 86 | 1009.2 |
| 20260507052724 | 3 | 150 | 1.6 | 3.2 | 0.00 | 0.00 | 0.00 | 86 | 1009.2 |
| 20260507051804 | 3 | 152 | 1.6 | 4.8 | 0.00 | 0.00 | 0.00 | 85 | 1009.2 |
| 20260507050903 | 2 | 148 | 1.6 | 4.8 | 0.00 | 0.00 | 0.00 | 85 | 1009.2 |
| 20260507050003 | 2 | 128 | 0.0 | 3.2 | 0.00 | 0.00 | 0.00 | 85 | 1009.2 |
| 20260507045403 | 2 | 124 | 0.0 | 3.2 | 0.00 | 0.00 | 0.00 | 85 | 1009.2 |
| 20260507044503 | 2 | 109 | 0.0 | 1.6 | 0.00 | 0.00 | 0.00 | 85 | 1009.3 |
| 20260507043603 | 2 | 0 | 0.0 | 0.0 | 0.00 | 0.00 | 0.00 | 85 | 1009.2 |
| 20260507042707 | 2 | 103 | 0.0 | 1.6 | 0.00 | 0.00 | 0.00 | 84 | 1009.2 |
| 20260507041807 | 2 | 0 | 0.0 | 0.0 | 0.00 | 0.00 | 0.00 | 84 | 1009.2 |
| 20260507040907 | 2 | 0 | 0.0 | 0.0 | 0.00 | 0.00 | 0.00 | 84 | 1009.2 |
| 20260507040007 | 2 | 0 | 0.0 | 0.0 | 0.00 | 0.00 | 0.00 | 84 | 1009.2 |
| 20260507035407 | 2 | 0 | 0.0 | 0.0 | 0.00 | 0.00 | 0.00 | 84 | 1009.2 |
| 20260507034528 | 2 | 0 | 0.0 | 0.0 | 0.00 | 0.00 | 0.00 | 83 | 1009.3 |
| 20260507033607 | 2 | 0 | 0.0 | 0.0 | 0.00 | 0.00 | 0.00 | 83 | 1009.3 |
| 20260507032707 | 2 | 0 | 0.0 | 0.0 | 0.00 | 0.00 | 0.00 | 83 | 1009.4 |
| 20260507031807 | 2 | 0 | 0.0 | 0.0 | 0.00 | 0.00 | 0.00 | 83 | 1009.4 |
| 20260507030907 | 2 | 0 | 0.0 | 0.0 | 0.00 | 0.00 | 0.00 | 83 | 1009.4 |
| 20260507030008 | 2 | 0 | 0.0 | 0.0 | 0.00 | 0.00 | 0.00 | 83 | 1009.3 |
| 20260507025407 | 2 | 0 | 0.0 | 0.0 | 0.00 | 0.00 | 0.00 | 83 | 1009.4 |
| 20260507024507 | 2 | 0 | 0.0 | 0.0 | 0.00 | 0.00 | 0.00 | 83 | 1009.4 |
| 20260507023607 | 2 | 0 | 0.0 | 0.0 | 0.00 | 0.00 | 0.00 | 82 | 1009.5 |
| 20260507022707 | 2 | 0 | 0.0 | 0.0 | 0.00 | 0.00 | 0.00 | 82 | 1009.4 |
| 20260507021808 | 2 | 0 | 0.0 | 0.0 | 0.00 | 0.00 | 0.00 | 82 | 1009.4 |
| 20260507020906 | 2 | 0 | 0.0 | 0.0 | 0.00 | 0.00 | 0.00 | 81 | 1009.4 |
| 20260507020027 | 2 | 0 | 0.0 | 0.0 | 0.00 | 0.00 | 0.00 | 81 | 1009.4 |
| 20260507015407 | 2 | 0 | 0.0 | 0.0 | 0.00 | 0.00 | 0.00 | 81 | 1009.5 |
| 20260507014507 | 2 | 0 | 0.0 | 0.0 | 0.00 | 0.00 | 0.00 | 81 | 1009.4 |
| 20260507013607 | 2 | 0 | 0.0 | 0.0 | 0.00 | 0.00 | 0.00 | 81 | 1009.5 |
| 20260507012706 | 2 | 0 | 0.0 | 0.0 | 0.00 | 0.00 | 0.00 | 81 | 1009.6 |
| 20260507011827 | 2 | 0 | 0.0 | 0.0 | 0.00 | 0.00 | 0.00 | 80 | 1009.6 |
| 20260507010906 | 2 | 0 | 0.0 | 0.0 | 0.00 | 0.00 | 0.00 | 80 | 1009.6 |
| 20260507010006 | 2 | 0 | 0.0 | 0.0 | 0.00 | 0.00 | 0.00 | 80 | 1009.6 |
| 20260507005427 | 2 | 0 | 0.0 | 0.0 | 0.00 | 0.00 | 0.00 | 80 | 1009.6 |
| 20260507004527 | 2 | 0 | 0.0 | 0.0 | 0.00 | 0.00 | 0.00 | 80 | 1009.6 |
| 20260507003606 | 2 | 0 | 0.0 | 0.0 | 0.00 | 0.00 | 0.00 | 79 | 1009.6 |
| 20260507002706 | 3 | 0 | 0.0 | 0.0 | 0.00 | 0.00 | 0.00 | 79 | 1009.6 |
| 20260507001806 | 3 | 0 | 0.0 | 0.0 | 0.00 | 0.00 | 0.00 | 78 | 1009.6 |
| 20260507000927 | 3 | 0 | 0.0 | 0.0 | 0.00 | 0.00 | 0.00 | 78 | 1009.8 |
| 20260507000007 | 3 | 0 | 0.0 | 0.0 | 0.00 | 0.00 | 0.00 | 78 | 1009.6 |
| 20260506235408 | 3 | 0 | 0.0 | 0.0 | 0.00 | 0.00 | 0.00 | 78 | 1009.6 |
| 20260506234506 | 3 | 0 | 0.0 | 0.0 | 0.00 | 0.00 | 0.00 | 78 | 1009.6 |
| 20260506233627 | 3 | 0 | 0.0 | 0.0 | 0.00 | 0.00 | 0.00 | 78 | 1009.7 |
| 20260506232707 | 3 | 0 | 0.0 | 0.0 | 0.00 | 0.00 | 0.00 | 77 | 1009.8 |
| 20260506231806 | 3 | 0 | 0.0 | 0.0 | 0.00 | 0.00 | 0.00 | 77 | 1009.8 |
| 20260506230906 | 4 | 0 | 0.0 | 0.0 | 0.00 | 0.00 | 0.00 | 76 | 1009.9 |
| 20260506230006 | 4 | 0 | 0.0 | 0.0 | 0.00 | 0.00 | 0.00 | 75 | 1009.8 |
| 20260506225406 | 4 | 0 | 0.0 | 0.0 | 0.00 | 0.00 | 0.00 | 74 | 1009.9 |
| 20260506224527 | 4 | 0 | 0.0 | 0.0 | 0.00 | 0.00 | 0.00 | 73 | 1009.9 |
| 20260506223627 | 5 | 0 | 0.0 | 0.0 | 0.00 | 0.00 | 0.00 | 72 | 1009.9 |
| 20260506222706 | 5 | 0 | 0.0 | 0.0 | 0.00 | 0.00 | 0.00 | 72 | 1009.8 |
| 20260506221806 | 5 | 0 | 0.0 | 0.0 | 0.00 | 0.00 | 0.00 | 72 | 1009.9 |
| 20260506220907 | 5 | 0 | 0.0 | 0.0 | 0.00 | 0.00 | 0.00 | 71 | 1009.9 |
| 20260506220006 | 5 | 0 | 0.0 | 0.0 | 0.00 | 0.00 | 0.00 | 71 | 1009.9 |
| 20260506215406 | 5 | 0 | 0.0 | 0.0 | 0.00 | 0.00 | 0.00 | 71 | 1009.9 |
| 20260506214506 | 5 | 0 | 0.0 | 0.0 | 0.00 | 0.00 | 0.00 | 71 | 1009.8 |
| 20260506213627 | 5 | 0 | 0.0 | 0.0 | 0.00 | 0.00 | 0.00 | 70 | 1009.8 |
| 20260506212706 | 6 | 75 | 0.0 | 1.6 | 0.00 | 0.00 | 0.00 | 70 | 1009.8 |
| 20260506211806 | 6 | 0 | 0.0 | 0.0 | 0.00 | 0.00 | 0.00 | 69 | 1009.8 |
| 20260506210906 | 6 | 0 | 0.0 | 0.0 | 0.00 | 0.00 | 0.00 | 69 | 1009.9 |
| 20260506210006 | 6 | 0 | 0.0 | 0.0 | 0.00 | 0.00 | 0.00 | 68 | 1009.9 |
| 20260506205406 | 6 | 0 | 0.0 | 0.0 | 0.00 | 0.00 | 0.00 | 68 | 1009.8 |
| 20260506204506 | 6 | 75 | 0.0 | 1.6 | 0.00 | 0.00 | 0.00 | 68 | 1009.7 |
| 20260506203605 | 6 | 0 | 0.0 | 0.0 | 0.00 | 0.00 | 0.00 | 67 | 1009.8 |
| 20260506202727 | 7 | 0 | 0.0 | 0.0 | 0.00 | 0.00 | 0.00 | 67 | 1009.8 |
| 20260506201805 | 7 | 75 | 0.0 | 1.6 | 0.00 | 0.00 | 0.00 | 66 | 1009.7 |
| 20260506200905 | 7 | 75 | 0.0 | 1.6 | 0.00 | 0.00 | 0.00 | 66 | 1009.8 |
| 20260506200006 | 7 | 71 | 0.0 | 1.6 | 0.00 | 0.00 | 0.00 | 66 | 1009.8 |
| 20260506195405 | 7 | 71 | 0.0 | 1.6 | 0.00 | 0.00 | 0.00 | 66 | 1009.8 |
| 20260506194505 | 7 | 83 | 0.0 | 4.8 | 0.00 | 0.00 | 0.00 | 65 | 1009.7 |
| 20260506193605 | 7 | 86 | 0.0 | 4.8 | 0.00 | 0.00 | 0.00 | 65 | 1009.5 |
| 20260506192726 | 8 | 87 | 0.0 | 3.2 | 0.00 | 0.00 | 0.00 | 65 | 1009.5 |
| 20260506191805 | 8 | 91 | 0.0 | 3.2 | 0.00 | 0.00 | 0.00 | 64 | 1009.7 |
| 20260506190905 | 8 | 101 | 0.0 | 4.8 | 0.00 | 0.00 | 0.00 | 64 | 1009.4 |
| 20260506190006 | 8 | 105 | 1.6 | 6.4 | 0.00 | 0.00 | 0.00 | 64 | 1009.5 |
| 20260506185405 | 8 | 95 | 1.6 | 6.4 | 0.00 | 0.00 | 0.00 | 64 | 1009.4 |
| 20260506184505 | 8 | 122 | 1.6 | 6.4 | 0.00 | 0.00 | 0.00 | 63 | 1009.5 |